User: anonymous   Login
Location: Les Jeannots
(43.2262°N, 5.5774°E)
Time: 19:29:56
(UTC+00:00)
Language:

Cosmos 1610 Rocket - Orbit

View from above orbital plane
View from above orbital plane
View from above satellite
View from above satellite

Ground track
Ground track

The orbit data is extracted from the following two-line orbital elements,

1 15399U 84118B   20263.34024574 +.00000071 +00000-0 +56849-4 0  9995
2 15399 082.9482 202.5132 0035252 069.4585 042.5374 13.76109248799417
Epoch (UTC): 19 September 2020 08:09:57
Eccentricity: 0.0035252
inclination: 82.9482°
perigee height: 952 km
apogee height: 1003 km
right ascension of ascending node: 202.5132°
argument of perigee: 69.4585°
revolutions per day: 13.76109248
mean anomaly at epoch: 42.5374°
orbit number at epoch: 79941

The dashed part of the orbit path shows where the satellite is in the earth's shadow,  

DLR